FW5449 Weather Reports


time (UTC)temp
F
wind
direction
speed
knots
gust
knots
rain 1hr
in
rain 24hr
in
rain mn
in
humidity
%
barometer
mb
20260506120924 49 197 2.6 5.2 0.00 0.00 0.00 93 1019.5
20260506120422 49 229 1.7 4.3 0.00 0.00 0.00 93 1019.4
20260506115921 49 164 2.6 4.3 0.00 0.00 0.00 93 1019.4
20260506115421 49 227 2.6 5.2 0.00 0.00 0.00 93 1019.4
20260506114918 49 176 1.7 5.2 0.00 0.00 0.00 93 1019.2
20260506114418 49 208 1.7 4.3 0.00 0.00 0.00 93 1019.1
20260506113911 49 203 2.6 4.3 0.00 0.00 0.00 93 1019.0
20260506113411 49 221 1.7 4.3 0.00 0.00 0.00 93 1019.0
20260506112912 50 223 2.6 5.2 0.00 0.00 0.00 93 1018.9
20260506112409 49 195 2.6 6.1 0.00 0.00 0.00 92 1018.8
20260506111908 50 192 2.6 6.1 0.00 0.00 0.00 92 1018.7
20260506111627 50 183 2.6 5.2 0.00 0.00 0.00 92 1018.7
20260506110906 50 191 2.6 4.3 0.00 0.00 0.00 92 1018.6
20260506110406 50 176 1.7 3.5 0.00 0.00 0.00 92 1018.4
20260506110126 50 172 1.7 2.6 0.00 0.00 0.00 92 1018.5
20260506105354 50 171 1.7 2.6 0.00 0.00 0.00 91 1018.3
20260506104843 51 171 1.7 5.2 0.00 0.00 0.00 91 1018.2
20260506104341 51 177 2.6 5.2 0.00 0.00 0.00 91 1018.2
20260506103841 51 184 2.6 3.5 0.00 0.00 0.00 91 1018.2
20260506103341 51 167 1.7 3.5 0.00 0.00 0.00 91 1018.1
20260506102839 51 177 0.9 2.6 0.00 0.00 0.00 90 1018.1
20260506102335 51 177 0.9 2.6 0.00 0.00 0.00 91 1018.0
20260506101837 51 175 0.9 2.6 0.00 0.00 0.00 91 1017.9
20260506101331 51 185 1.7 3.5 0.00 0.00 0.00 91 1017.9
20260506100827 51 185 2.6 5.2 0.00 0.00 0.00 91 1017.9
20260506100323 51 173 2.6 5.2 0.00 0.00 0.00 91 1017.8
20260506095822 51 193 2.6 5.2 0.00 0.00 0.00 91 1017.9
20260506095316 51 187 2.6 5.2 0.00 0.00 0.00 90 1017.9
20260506094818 52 175 3.5 6.1 0.00 0.00 0.00 90 1017.9
20260506094535 52 210 2.6 7.0 0.00 0.00 0.00 90 1017.8
20260506093808 52 171 2.6 7.0 0.00 0.00 0.00 90 1017.8
20260506093307 52 191 3.5 6.1 0.00 0.00 0.00 90 1017.8
20260506093029 52 184 3.5 6.1 0.00 0.00 0.00 90 1017.8
20260506092301 52 181 3.5 6.1 0.00 0.00 0.00 90 1017.7
20260506091802 52 175 2.6 5.2 0.00 0.00 0.00 90 1017.8
20260506091300 52 203 1.7 5.2 0.00 0.00 0.00 90 1017.8
20260506090802 52 217 1.7 3.5 0.00 0.00 0.00 89 1017.8
20260506090259 52 206 1.7 3.5 0.00 0.00 0.00 90 1017.8
20260506085800 53 180 0.9 3.5 0.00 0.00 0.00 89 1017.7
20260506085301 53 203 0.9 2.6 0.00 0.00 0.00 89 1017.7
20260506085025 53 193 1.7 3.5 0.00 0.00 0.00 89 1017.6
20260506084252 53 173 1.7 3.5 0.00 0.00 0.00 89 1017.5
20260506083749 53 177 1.7 2.6 0.00 0.00 0.00 89 1017.5
20260506083251 53 193 1.7 3.5 0.00 0.00 0.00 89 1017.5
20260506082744 53 175 1.7 3.5 0.00 0.00 0.00 89 1017.5
20260506082241 53 175 1.7 2.6 0.00 0.00 0.00 90 1017.5
20260506081737 54 198 1.7 2.6 0.00 0.00 0.00 89 1017.4
20260506081240 54 195 1.7 2.6 0.00 0.00 0.00 89 1017.5
20260506080733 54 167 1.7 3.5 0.00 0.00 0.00 88 1017.4
20260506080231 55 166 2.6 5.2 0.00 0.00 0.00 88 1017.5
20260506073147 56 226 0.9 2.6 0.00 0.00 0.00 85 1017.5
20260506072647 57 226 1.7 2.6 0.00 0.00 0.00 85 1017.5
20260506072143 57 248 1.7 4.3 0.00 0.00 0.00 85 1017.4
20260506071644 57 230 1.7 4.3 0.00 0.00 0.00 85 1017.4
20260506071132 57 265 1.7 4.3 0.00 0.00 0.00 85 1017.3
20260506070619 58 241 0.9 4.3 0.00 0.00 0.00 86 1017.2
20260506070331 58 141 0.9 2.6 0.00 0.00 0.00 87 1017.2
20260506062021 58 85 0.0 0.0 0.00 0.00 0.00 88 1017.0
20260506061519 57 85 0.0 1.7 0.00 0.00 0.00 87 1016.9
20260506061019 58 85 0.0 1.7 0.00 0.00 0.00 87 1016.9
20260506060516 58 23 0.0 0.0 0.00 0.00 0.00 87 1016.7
20260506060230 57 23 0.0 0.0 0.00 0.00 0.00 87 1016.8
20260506051408 57 23 0.9 1.7 0.00 0.00 0.00 86 1016.3
20260506050858 57 23 0.9 1.7 0.00 0.00 0.00 85 1016.3
20260506050358 57 23 0.9 2.6 0.00 0.00 0.00 85 1016.2
20260506044824 58 314 0.9 2.6 0.00 0.00 0.00 84 1016.0
20260506044321 58 327 0.9 2.6 0.00 0.00 0.00 83 1015.9
20260506043821 58 292 0.9 2.6 0.00 0.00 0.00 84 1015.8
20260506043544 58 294 0.9 2.6 0.00 0.00 0.00 83 1015.9
20260506042821 58 294 0.9 2.6 0.00 0.00 0.00 83 1015.7
20260506042310 59 294 0.9 2.6 0.00 0.00 0.00 83 1015.8
20260506041755 59 294 0.9 2.6 0.00 0.00 0.00 83 1015.7
20260506041256 59 294 0.9 1.7 0.00 0.00 0.00 83 1015.8
20260506040752 59 294 0.9 2.6 0.00 0.00 0.00 83 1015.7
20260506040507 59 294 0.9 2.6 0.00 0.00 0.00 82 1015.6
20260506035746 59 258 0.9 2.6 0.00 0.00 0.00 82 1015.6
20260506035502 59 260 1.7 2.6 0.00 0.00 0.00 82 1015.5
20260506034745 59 250 0.9 2.6 0.00 0.00 0.00 83 1015.6
20260506034726 59 239 0.9 2.6 0.00 0.00 0.00 81 1015.4
20260506034003 60 240 0.9 2.6 0.00 0.00 0.00 79 1015.4
20260506033236 61 330 0.9 2.6 0.00 0.00 0.00 78 1015.3
20260506032727 61 330 1.7 2.6 0.00 0.00 0.00 77 1015.3
20260506032221 62 337 1.7 3.5 0.00 0.00 0.00 77 1015.1
20260506031719 62 322 1.7 3.5 0.00 0.00 0.00 77 1015.2
20260506031219 62 353 0.9 3.5 0.00 0.00 0.00 76 1015.2
20260506030715 63 15 1.7 3.5 0.00 0.00 0.00 76 1015.1
20260506030435 63 15 1.7 3.5 0.00 0.00 0.00 75 1015.2
20260506025708 63 4 2.6 5.2 0.00 0.00 0.00 75 1015.1
20260506025210 64 346 2.6 5.2 0.00 0.00 0.00 75 1015.0
20260506024709 64 11 2.6 6.1 0.00 0.00 0.00 75 1015.0
20260506024427 64 11 2.6 6.1 0.00 0.00 0.00 74 1015.0
20260506023711 64 22 2.6 6.1 0.00 0.00 0.00 74 1015.0
20260506023210 65 355 2.6 6.1 0.00 0.00 0.00 74 1014.9
20260506022707 65 342 3.5 7.0 0.00 0.00 0.00 73 1014.7
20260506022208 65 7 4.3 7.8 0.00 0.00 0.00 73 1014.8
20260506021933 65 17 3.5 7.8 0.00 0.00 0.00 73 1014.7
20260506021428 65 36 3.5 6.1 0.00 0.00 0.00 72 1014.7
20260506020700 65 15 3.5 6.1 0.00 0.00 0.00 72 1014.8
20260506020158 65 356 2.6 6.1 0.00 0.00 0.00 71 1014.8
20260506015658 66 50 3.5 7.0 0.00 0.00 0.00 71 1014.7
20260506015158 66 16 3.5 7.0 0.00 0.00 0.00 71 1014.8
20260506014700 66 17 3.5 7.0 0.00 0.00 0.00 70 1014.6
20260506014159 66 329 2.6 6.1 0.00 0.00 0.00 70 1014.6
20260506013657 66 36 2.6 7.0 0.00 0.00 0.00 70 1014.6
20260506013155 67 54 3.5 8.7 0.00 0.00 0.00 69 1014.6
20260506012654 67 35 4.3 8.7 0.00 0.00 0.00 69 1014.6
20260506012150 67 352 4.3 7.8 0.00 0.00 0.00 69 1014.6
20260506011650 67 44 4.3 8.7 0.00 0.00 0.00 69 1014.6
20260506011410 67 13 4.3 8.7 0.00 0.00 0.00 69 1014.6
20260506010636 67 5 3.5 7.0 0.00 0.00 0.00 69 1014.6
20260506010125 67 275 5.2 9.6 0.00 0.00 0.00 68 1014.6
20260506005610 67 10 4.3 9.6 0.00 0.00 0.00 67 1014.6
20260506005104 68 358 2.6 7.8 0.00 0.00 0.00 69 1014.6
20260506005058 69 359 2.6 7.0 0.00 0.00 0.00 65 1014.6
20260506004102 68 306 2.6 6.1 0.00 0.00 0.00 67 1014.7
20260506003558 68 28 4.3 7.8 0.00 0.00 0.00 66 1014.7
20260506003054 68 321 3.5 7.8 0.00 0.00 0.00 67 1014.8
20260506002557 67 15 2.6 7.0 0.00 0.00 0.00 67 1014.8
20260506002054 68 356 3.5 9.6 0.00 0.00 0.00 67 1014.7
20260506001818 68 33 3.5 9.6 0.00 0.00 0.00 67 1014.7
20260506001053 68 0 3.5 9.6 0.00 0.00 0.00 66 1014.7
20260506000552 68 358 3.5 7.8 0.00 0.00 0.00 67 1014.8
20260506000051 67 347 2.6 7.8 0.00 0.00 0.00 66 1014.7
20260505235550 68 22 1.7 7.0 0.00 0.00 0.00 66 1014.7
20260505235308 68 335 1.7 4.3 0.00 0.00 0.00 65 1014.8
20260505234550 68 0 3.5 7.8 0.00 0.00 0.00 65 1014.8
20260505234048 68 6 4.3 8.7 0.00 0.00 0.00 65 1014.9
20260505233544 68 17 5.2 8.7 0.00 0.00 0.00 65 1014.8
20260505233043 69 356 4.3 8.7 0.00 0.00 0.00 64 1014.9
20260505232541 68 354 2.6 6.1 0.00 0.00 0.00 64 1014.9
20260505232305 68 303 1.7 4.3 0.00 0.00 0.00 64 1015.0
20260505231543 68 344 2.6 7.8 0.00 0.00 0.00 65 1015.0
20260505231043 68 334 2.6 7.8 0.00 0.00 0.00 65 1015.0
20260505230539 68 45 2.6 6.1 0.00 0.00 0.00 65 1015.1
20260505230038 68 314 2.6 6.1 0.00 0.00 0.00 65 1015.1
20260505225537 67 307 2.6 6.1 0.00 0.00 0.00 67 1015.1
20260505225314 67 1 1.7 5.2 0.00 0.00 0.00 68 1015.1
20260505224539 66 206 1.7 4.3 0.00 0.00 0.00 68 1015.3
20260505224039 65 58 3.5 7.8 0.00 0.00 0.00 69 1015.3
20260505223536 67 34 3.5 8.7 0.00 0.00 0.00 67 1015.4
20260505223035 67 58 3.5 8.7 0.00 0.00 0.00 66 1015.3
20260505222534 67 331 4.3 10.4 0.00 0.00 0.00 71 1015.5
20260505222213 64 10 4.3 7.8 0.00 0.00 0.00 69 1015.6
20260505222108 66 298 4.3 10.4 0.00 0.00 0.00 71 1015.6
20260505221619 65 338 3.5 7.8 0.00 0.00 0.00 72 1015.7
20260505220533 65 6 3.5 7.8 0.00 0.00 0.00 70 1015.7
20260505220034 65 1 3.5 8.7 0.00 0.00 0.00 68 1015.7
20260505215535 65 13 2.6 8.7 0.00 0.00 0.00 70 1015.7
20260505215032 65 348 1.7 7.0 0.00 0.00 0.00 71 1015.7
20260505214534 65 17 1.7 7.0 0.00 0.00 0.00 68 1015.7
20260505214030 65 165 2.6 7.0 0.00 0.00 0.00 68 1015.7
20260505213536 64 358 1.7 6.1 0.00 0.00 0.00 72 1015.7
20260505212941 63 0 1.7 4.3 0.00 0.00 0.00 70 1015.8
20260505212440 64 239 2.6 7.0 0.00 0.00 0.00 70 1015.7
20260505211941 64 354 2.6 7.0 0.00 0.00 0.00 70 1015.7
20260505211438 64 7 2.6 6.1 0.00 0.00 0.00 72 1015.8
20260505210938 64 25 3.5 7.0 0.00 0.00 0.00 70 1015.8
20260505210440 64 2 3.5 7.0 0.00 0.00 0.00 73 1015.8
20260505205937 64 312 2.6 6.1 0.00 0.00 0.00 71 1015.9
20260505205438 64 6 2.6 6.1 0.00 0.00 0.00 72 1016.0
20260505204938 63 48 1.7 3.5 0.00 0.00 0.00 70 1016.0
20260505204432 62 339 1.7 3.5 0.00 0.00 0.00 71 1016.0
20260505203931 61 358 0.9 3.5 0.00 0.00 0.00 73 1016.0
20260505203431 61 327 0.9 2.6 0.00 0.00 0.00 72 1016.2
20260505202923 61 37 1.7 5.2 0.00 0.00 0.00 72 1016.2
20260505202421 62 23 2.6 6.1 0.00 0.00 0.00 72 1016.1
20260505201922 62 23 2.6 6.1 0.00 0.00 0.00 73 1016.0
20260505201421 62 10 1.7 5.2 0.00 0.00 0.00 73 1016.1
20260505200920 62 347 1.7 4.3 0.00 0.00 0.00 72 1016.1
20260505200417 61 175 2.6 4.3 0.00 0.00 0.00 73 1016.1
20260505195917 61 265 2.6 5.2 0.00 0.00 0.00 74 1016.1
20260505195638 61 239 1.7 5.2 0.00 0.00 0.00 75 1016.1
20260505194919 60 94 1.7 5.2 0.00 0.00 0.00 75 1016.1
20260505194404 60 122 0.9 5.2 0.00 0.00 0.00 74 1016.1
20260505193901 60 135 0.9 3.5 0.00 0.00 0.00 74 1016.2
20260505193842 60 138 0.9 3.5 0.00 0.00 0.00 75 1016.1
20260505192902 60 192 0.9 5.2 0.00 0.00 0.00 75 1016.1
20260505192357 60 192 1.7 5.2 0.00 0.00 0.00 77 1016.1
20260505191847 60 257 0.9 5.2 0.00 0.00 0.00 76 1016.1
20260505191342 59 160 0.9 2.6 0.00 0.00 0.00 76 1016.1
20260505190842 60 219 0.9 3.5 0.00 0.00 0.00 79 1016.0
20260505190346 60 219 1.7 3.5 0.00 0.00 0.00 77 1016.0
20260505185842 59 157 1.7 3.5 0.00 0.00 0.00 76 1016.1
20260505185546 59 200 2.6 6.1 0.00 0.00 0.00 78 1016.0
20260505185436 59 206 2.6 6.1 0.00 0.00 0.00 78 1016.0
20260505184339 59 169 1.7 3.5 0.00 0.00 0.00 77 1016.0
20260505183840 59 231 1.7 3.5 0.00 0.00 0.00 78 1016.0
20260505183559 59 231 0.9 3.5 0.00 0.00 0.00 75 1015.9
20260505182831 59 74 0.0 1.7 0.00 0.00 0.00 78 1016.0
20260505182558 58 65 0.9 2.6 0.00 0.00 0.00 77 1015.9
20260505181825 58 164 1.7 4.3 0.00 0.00 0.00 77 1015.9
20260505181322 58 223 2.6 5.2 0.00 0.00 0.00 76 1015.8
20260505181040 58 152 1.7 5.2 0.00 0.00 0.00 77 1015.8
20260505180803 58 206 1.7 3.5 0.00 0.00 0.00 77 1015.8
20260505175823 59 235 0.9 3.5 0.00 0.00 0.00 77 1015.8
20260505175545 58 260 0.9 3.5 0.00 0.00 0.00 77 1015.8
20260505174812 58 218 1.7 4.3 0.00 0.00 0.00 78 1015.8
20260505174315 58 223 1.7 5.2 0.00 0.00 0.00 76 1015.7
20260505173812 58 214 1.7 5.2 0.00 0.00 0.00 78 1015.8
20260505173310 57 137 1.7 3.5 0.00 0.00 0.00 78 1015.8
20260505172813 57 173 1.7 3.5 0.00 0.00 0.00 78 1015.8
20260505172308 58 198 0.9 3.5 0.00 0.00 0.00 77 1015.7
20260505171805 57 179 1.7 3.5 0.00 0.00 0.00 78 1015.6
20260505171303 57 147 2.6 7.0 0.00 0.00 0.00 78 1015.7
20260505170801 57 152 3.5 7.0 0.00 0.00 0.00 77 1015.7
20260505170305 58 172 1.7 7.0 0.00 0.00 0.00 78 1015.6
20260505170025 57 225 1.7 3.5 0.00 0.00 0.00 79 1015.7
20260505165301 57 178 1.7 3.5 0.00 0.00 0.00 79 1015.6
20260505164757 57 237 1.7 4.3 0.00 0.00 0.00 78 1015.6
20260505164524 57 229 1.7 4.3 0.00 0.00 0.00 79 1015.7
20260505163757 57 265 1.7 4.3 0.00 0.00 0.00 80 1015.7
20260505163519 57 182 0.9 3.5 0.00 0.00 0.00 79 1015.7
20260505162749 57 249 1.7 3.5 0.00 0.00 0.00 80 1015.7
20260505162249 57 237 1.7 3.5 0.00 0.00 0.00 80 1015.6
20260505161750 57 212 1.7 3.5 0.00 0.00 0.00 80 1015.7
20260505161253 57 247 0.9 2.6 0.00 0.00 0.00 79 1015.7
20260505160741 56 238 1.7 4.3 0.00 0.00 0.00 80 1015.7
20260505160502 56 241 2.6 4.3 0.00 0.00 0.00 80 1015.7
20260505152722 56 208 2.6 4.3 0.00 0.00 0.00 82 1015.8
20260505152216 56 228 2.6 4.3 0.00 0.00 0.00 82 1015.6
20260505151715 56 221 2.6 5.2 0.00 0.00 0.00 83 1015.7
20260505151450 55 187 2.6 5.2 0.00 0.00 0.00 83 1015.6
20260505150715 55 181 2.6 4.3 0.00 0.00 0.00 82 1015.6
20260505150433 55 204 2.6 4.3 0.00 0.00 0.00 82 1015.5
20260505140205 54 175 0.9 2.6 0.00 0.00 0.00 84 1015.3
20260505125026 54 258 1.7 2.6 0.00 0.00 0.00 85 1015.0
20260505124520 54 258 2.6 4.3 0.00 0.00 0.00 85 1014.9
20260505124017 54 254 2.6 5.2 0.00 0.00 0.00 85 1014.8
20260505123515 54 247 2.6 5.2 0.00 0.00 0.00 85 1014.9
20260505123015 53 248 2.6 5.2 0.00 0.00 0.00 85 1014.7
20260505122512 54 257 2.6 5.2 0.00 0.00 0.00 86 1014.7
20260505122012 54 293 1.7 4.3 0.00 0.00 0.00 86 1014.7
20260505121737 54 238 1.7 3.5 0.00 0.00 0.00 86 1014.7